DW1283 Weather Reports


Display with metric or nautical units.
time (UTC)temp
F
wind
direction
speed
MPH
gust
MPH
rain 1hr
in
rain 24hr
in
rain mn
in
humidity
%
barometer
mb
20220627144549 72 294 0.0 0.0 0.00 0.00 0.03 83 1010.2
20220627143050 73 187 0.0 0.0 0.00 0.00 0.02 81 1009.9
20220627141557 73 249 0.0 0.0 0.00 0.00 0.00 78 1010.0
20220627140046 74 187 1.0 0.0 0.00 0.00 0.00 78 1010.1
20220627134545 74 157 1.0 0.0 0.00 0.00 0.00 76 1010.0
20220627133043 73 240 0.0 0.0 0.00 0.00 0.00 76 1010.0
20220627131546 73 192 1.0 0.0 0.00 0.00 0.00 76 1010.1
20220627130042 73 189 0.0 0.0 0.00 0.00 0.00 76 1009.9
20220627124553 73 210 1.0 0.0 0.00 0.00 0.00 76 1009.9
20220627123039 73 196 0.0 0.0 0.00 0.00 0.00 76 1009.9
20220627121537 72 200 0.0 0.0 0.00 0.00 0.00 76 1009.9
20220627120046 72 236 0.0 0.0 0.00 0.00 0.00 76 1010.1
20220627114536 71 232 0.0 0.0 0.00 0.00 0.00 77 1010.2
20220627113034 71 182 0.0 0.0 0.00 0.00 0.00 76 1010.2
20220627111533 71 209 0.0 0.0 0.00 0.00 0.00 76 1010.3
20220627110033 70 194 0.0 0.0 0.00 0.00 0.00 76 1010.1
20220627104532 70 184 0.0 0.0 0.00 0.00 0.00 76 1010.3
20220627103029 70 138 0.0 0.0 0.00 0.00 0.00 76 1010.4
20220627101530 69 225 0.0 0.0 0.00 0.00 0.00 77 1010.7
20220627100029 69 128 0.0 0.0 0.00 0.00 0.00 78 1010.7
20220627094526 69 232 0.0 0.0 0.00 0.00 0.00 78 1010.8
20220627093046 68 207 0.0 0.0 0.00 0.00 0.00 78 1011.0
20220627091526 68 173 0.0 0.0 0.00 0.00 0.00 77 1011.0
20220627090022 68 169 0.0 0.0 0.00 0.00 0.00 76 1011.0
20220627084528 69 139 0.0 0.0 0.00 0.00 0.00 76 1011.3
20220627083025 69 190 0.0 0.0 0.00 0.00 0.00 74 1011.3
20220627081524 69 136 0.0 0.0 0.00 0.00 0.00 73 1011.5
20220627080014 69 128 0.0 0.0 0.00 0.00 0.00 72 1011.7
20220627074512 69 242 0.0 0.0 0.00 0.00 0.00 70 1011.8
20220627073011 69 245 0.0 0.0 0.00 0.00 0.00 69 1011.9
20220627071508 70 205 0.0 0.0 0.00 0.00 0.00 67 1012.1
20220627070010 70 194 0.0 0.0 0.00 0.00 0.00 66 1012.4
20220627064504 70 199 0.0 0.0 0.00 0.00 0.00 64 1012.5
20220627063003 70 198 0.0 0.0 0.00 0.00 0.00 63 1012.5
20220627061504 70 198 0.0 0.0 0.00 0.00 0.00 62 1012.7
20220627060100 70 101 0.0 0.0 0.00 0.00 0.00 62 1012.8
20220627060002 70 102 0.0 0.0 0.00 0.00 0.00 61 1012.7
20220627054558 70 182 0.0 0.0 0.00 0.00 0.00 61 1012.8
20220627053057 71 147 0.0 0.0 0.00 0.00 0.00 61 1012.9
20220627051604 71 208 0.0 0.0 0.00 0.00 0.00 61 1013.1
20220627050058 71 207 0.0 0.0 0.00 0.00 0.00 61 1013.0
20220627044552 71 195 0.0 0.0 0.00 0.00 0.00 61 1013.2
20220627043050 71 194 0.0 0.0 0.00 0.00 0.00 60 1013.3
20220627041552 72 194 0.0 0.0 0.00 0.00 0.00 60 1013.3
20220627040048 72 194 0.0 0.0 0.00 0.00 0.00 60 1013.5
20220627034544 72 184 0.0 0.0 0.00 0.00 0.00 61 1013.7
20220627033044 73 281 0.0 0.0 0.00 0.00 0.00 63 1013.7
20220627031546 73 190 0.0 0.0 0.00 0.00 0.00 65 1013.7
20220627030043 73 189 0.0 0.0 0.00 0.00 0.00 67 1013.7
20220627024546 74 144 0.0 0.0 0.00 0.00 0.00 68 1013.7
20220627023049 74 144 0.0 0.0 0.00 0.00 0.00 70 1013.8
20220627021541 74 143 0.0 0.0 0.00 0.00 0.00 71 1014.0
20220627020041 75 140 0.0 0.0 0.00 0.00 0.00 72 1014.1
20220627014542 75 138 0.0 0.0 0.00 0.00 0.00 72 1014.0
20220627013043 76 123 0.0 0.0 0.00 0.00 0.00 70 1013.9
20220627011540 77 123 0.0 0.0 0.00 0.00 0.00 67 1013.7
20220627010039 78 123 0.0 0.0 0.00 0.00 0.00 65 1013.7
20220627004538 78 123 0.0 0.0 0.00 0.00 0.00 62 1013.4
20220627003038 80 123 0.0 0.0 0.00 0.00 0.00 60 1013.4
20220627001538 81 123 0.0 0.0 0.00 0.00 0.00 57 1013.3
20220627000044 82 123 0.0 0.0 0.00 0.00 0.00 55 1013.2
20220626234537 83 232 0.0 0.0 0.00 0.00 0.00 54 1013.2
20220626233037 85 144 0.0 0.0 0.00 0.00 0.00 52 1013.1
20220626231536 86 208 0.0 0.0 0.00 0.00 0.00 50 1013.0
20220626230035 87 196 1.0 0.0 0.00 0.00 0.00 50 1013.0
20220626224535 88 231 0.0 0.0 0.00 0.00 0.00 49 1012.8
20220626223034 89 188 0.0 0.0 0.00 0.00 0.00 49 1012.8
20220626221536 90 178 0.0 0.0 0.00 0.00 0.00 48 1012.8
20220626220037 91 200 0.0 0.0 0.00 0.00 0.00 46 1012.8
20220626214533 92 152 1.0 0.0 0.00 0.00 0.00 44 1012.7
20220626213032 93 123 1.0 0.0 0.00 0.00 0.00 43 1012.6
20220626211530 94 160 0.0 0.0 0.00 0.00 0.00 40 1012.9
20220626210032 95 162 0.0 0.0 0.00 0.00 0.00 39 1013.0
20220626204528 95 163 0.0 0.0 0.00 0.00 0.00 39 1013.2
20220626203026 96 142 0.0 0.0 0.00 0.00 0.00 37 1013.3
20220626201535 96 140 0.0 0.0 0.00 0.00 0.00 37 1013.3
20220626200027 95 136 0.0 0.0 0.00 0.00 0.00 38 1013.4
20220626194522 95 132 0.0 0.0 0.00 0.00 0.00 38 1013.6
20220626193021 95 132 0.0 0.0 0.00 0.00 0.00 38 1013.9
20220626191523 97 132 0.0 0.0 0.00 0.00 0.00 36 1013.9
20220626190021 98 174 0.0 0.0 0.00 0.00 0.00 34 1014.1
20220626184528 98 165 0.0 0.0 0.00 0.00 0.00 32 1014.1
20220626183017 97 135 0.0 0.0 0.00 0.00 0.00 34 1014.3
20220626181515 98 172 1.0 0.0 0.00 0.00 0.00 34 1014.4
20220626180018 98 206 0.0 0.0 0.00 0.00 0.00 33 1014.6
20220626174511 97 168 0.0 0.0 0.00 0.00 0.00 35 1014.9
20220626173014 97 138 0.0 0.0 0.00 0.00 0.00 35 1015.0
20220626171506 98 145 0.0 0.0 0.00 0.00 0.00 35 1015.3
20220626170004 98 286 0.0 0.0 0.00 0.00 0.00 35 1015.4
20220626164503 97 240 0.0 0.0 0.00 0.00 0.00 36 1015.5
20220626163002 98 184 0.0 0.0 0.00 0.00 0.00 36 1015.5
20220626161601 97 211 0.0 0.0 0.00 0.00 0.00 37 1015.8
20220626160055 96 199 0.0 0.0 0.00 0.00 0.00 38 1016.1
20220626154555 96 159 0.0 0.0 0.00 0.00 0.00 39 1016.1
20220626153053 95 277 0.0 0.0 0.00 0.00 0.00 38 1016.2
20220626151552 94 277 0.0 0.0 0.00 0.00 0.00 41 1016.4
20220626150045 93 267 0.0 0.0 0.00 0.00 0.00 41 1016.5